Tracking 25710 objects as of 6-Jul-2022
HD Live streaming from Space Station
objects crossing your sky now

STARLINK-2436

Track STARLINK-2436 now!
10-day predictions
STARLINK-2436 is classified as:


NORAD ID: 48101
Int'l Code: 2021-027K
Perigee: 553.3 km
Apogee: 555.5 km
Inclination: 53.1 °
Period: 95.6 minutes
Semi major axis: 6925 km
RCS: Unknown
Launch date: April 7, 2021
Source: United States (US)
Launch site: AIR FORCE EASTERN TEST RANGE (AFETR)
aabbcc
Your satellite tracking list
Your tracking list is empty




NASA's NSSDC Master Catalog

Two Line Element Set (TLE):
1 48101U 21027K   22187.10844361 -.00000051  00000-0  15466-4 0  9996
2 48101  53.0561  68.7162 0001591  70.3022 289.8139 15.06392889 69800
Source of the keplerian elements: AFSPC